Weather History for KTVR - November, 2011

Change the Weather History Date:

Saturday, November 5, 2011

  Actual Average Record
Temperature  
Mean Temperature 55 °F 59 °F  
Max Temperature 72 °F 72 °F 86 °F (2003)
Min Temperature 38 °F 46 °F 25 °F (1991)
Degree Days  
Heating Degree Days 10 7  
Month to date heating degree days 59 34  
Since 1 July heating degree days 216 136  
Cooling Degree Days 0 1  
Month to date cooling degree days 0 6  
Year to date cooling degree days 2553 2215  
Growing Degree Days 5 (Base 50)    
Moisture  
Dew Point 45 °F    
Average Humidity 69    
Maximum Humidity 100    
Minimum Humidity 38    
Precipitation  
Precipitation 0.00 in 0.14 in 3.06 in (1948)
Month to date precipitation 0.19 0.71  
Year to date precipitation 28.15 44.84  
Sea Level Pressure  
Sea Level Pressure 30.15 in    
Wind  
Wind Speed 6 mph (ESE)    
Max Wind Speed 14 mph    
Max Gust Speed 18 mph    
Visibility 6 miles    
Events Fog    
T = Trace of Precipitation, MM = Missing Value Source: NWS Daily Summary

Daily Weather History Graph

Daily Weather History Graph

Search for Another Location

Airport or City:

Trip Planner

Search our weather history database for the weather conditions in past years. The results will help you decide how hot, cold, wet, or windy it might be!

Date:

Astronomy

Nov. 05, 2011 Rise Set
Actual Time 7:24 AM CDT 6:10 PM CDT
Civil Twilight 6:58 AM CDT 6:36 PM CDT
Nautical Twilight 6:29 AM CDT 7:05 PM CDT
Astronomical Twilight 6:00 AM CDT 7:34 PM CDT
Moon 3:15 PM CDT 2:49 AM CDT
Length of Visible Light 11h 37m
Length of Day
10h 46m
Waxing Gibbous, 78% of the Moon is Illuminated
Nov 5
Waxing Gibbous
Nov 10
Full
Nov 18
Last Quarter
Nov 25
New
Dec 2
First Quarter

Hourly Weather History & Observations

Time (CDT) Temp. Windchill Dew Point Humidity Pressure Visibility Wind Dir Wind Speed Gust Speed Precip Events Conditions
12:53 AM 42.1 °F - 41.0 °F 96% 30.19 in 4.0 mi Calm Calm - N/A   Clear
1:40 AM 42.8 °F 41.1 °F 41.0 °F 93% 30.17 in 1.5 mi North 3.5 mph - N/A   Clear
1:50 AM 41.0 °F - 41.0 °F 100% 30.17 in 0.8 mi Calm Calm - N/A   Clear
1:53 AM 41.0 °F - 41.0 °F 100% 30.19 in 1.2 mi Calm Calm - N/A   Clear
2:16 AM 41.0 °F 39.0 °F 39.2 °F 93% 30.17 in 3.0 mi NE 3.5 mph - N/A   Clear
2:26 AM 42.8 °F 41.1 °F 41.0 °F 93% 30.16 in 1.5 mi NE 3.5 mph - N/A   Clear
2:38 AM 42.8 °F 41.1 °F 42.8 °F 100% 30.16 in 5.0 mi ENE 3.5 mph - N/A   Clear
2:53 AM 43.0 °F 40.3 °F 41.0 °F 93% 30.18 in 9.0 mi ENE 4.6 mph - N/A   Clear
3:53 AM 44.1 °F 41.5 °F 43.0 °F 96% 30.17 in 7.0 mi NNE 4.6 mph - N/A   Clear
4:53 AM 46.0 °F 43.9 °F 44.1 °F 93% 30.17 in 7.0 mi ENE 4.6 mph - N/A   Clear
5:53 AM 46.0 °F 43.1 °F 45.0 °F 96% 30.17 in 5.0 mi NE 5.8 mph - N/A   Clear
7:26 AM 42.8 °F - 42.8 °F 100% 30.16 in 0.8 mi Calm Calm - N/A   Clear
7:53 AM 39.9 °F 37.8 °F 39.9 °F 100% 30.19 in 0.2 mi ENE 3.5 mph - N/A Fog Fog
8:08 AM 42.8 °F - 42.8 °F 100% 30.17 in 1.2 mi Calm Calm - N/A   Partly Cloudy
8:26 AM 44.6 °F - 44.6 °F 100% 30.18 in 2.0 mi Calm Calm - N/A   Clear
8:53 AM 46.9 °F - 46.0 °F 97% 30.21 in 4.0 mi Calm Calm - N/A   Clear
9:53 AM 52.0 °F - 46.9 °F 83% 30.22 in 6.0 mi ESE 9.2 mph - N/A   Haze
10:53 AM 57.9 °F - 46.9 °F 67% 30.22 in 9.0 mi SSE 8.1 mph - N/A   Clear
11:53 AM 63.0 °F - 48.0 °F 58% 30.20 in 10.0 mi South 9.2 mph - N/A   Clear
12:53 PM 66.9 °F - 46.9 °F 49% 30.17 in 10.0 mi South 5.8 mph - N/A   Clear
1:53 PM 69.1 °F - 46.0 °F 44% 30.13 in 10.0 mi SSE 6.9 mph 17.3 mph N/A   Clear
2:53 PM 70.0 °F - 46.0 °F 42% 30.09 in 10.0 mi SE 6.9 mph - N/A   Clear
3:53 PM 71.1 °F - 45.0 °F 39% 30.09 in 10.0 mi South 5.8 mph - N/A   Clear
4:53 PM 71.1 °F - 44.1 °F 38% 30.08 in 10.0 mi SE 10.4 mph - N/A   Clear
5:53 PM 66.9 °F - 46.0 °F 47% 30.08 in 10.0 mi SE 8.1 mph - N/A   Clear
6:53 PM 57.9 °F - 46.0 °F 65% 30.09 in 10.0 mi SE 5.8 mph - N/A   Clear
7:53 PM 59.0 °F - 46.9 °F 64% 30.10 in 10.0 mi SE 8.1 mph - N/A   Clear
8:53 PM 59.0 °F - 48.0 °F 67% 30.11 in 10.0 mi SE 8.1 mph - N/A   Clear
9:53 PM 57.0 °F - 48.9 °F 74% 30.12 in 10.0 mi SE 8.1 mph - N/A   Clear
10:53 PM 55.9 °F - 48.9 °F 77% 30.14 in 10.0 mi SE 6.9 mph - N/A   Clear
11:53 PM 55.9 °F - 48.9 °F 77% 30.14 in 10.0 mi SSE 8.1 mph - N/A   Clear